Temp
-17 -17 -17 -16 -16 -16 -16 -16 -16 -16 -16 -16 -16 -16 -16 -16 -16 -16 -16 -16 -16 -15 -15 -15 -15 -15 -15 -16 -16 -16 -16 -15 -15 -15 -15 -15 -15 -15 -15 -15 -15 -15
-17 -17 -17 -16 -16 -16 -16 -16 -17 -17 -17 -16 -16 -16 -16 -16 -16 -16 -16 -16 -16 -16 -16 -16 -16 -16 -16 -16 -16 -16 -16 -16 -16 -15 -15 -15 -15 -15 -15 -15 -16 -16
-17 -17 -17 -17 -17 -17 -17 -17 -17 -17 -17 -17 -17 -17 -17 -17 -17 -17 -17 -17 -16 -16 -16 -16 -16 -16 -16 -16 -16 -16 -16 -16 -16 -16 -16 -16 -16 -16 -16 -16 -16 -16
-17 -17 -17 -17 -17 -17 -17 -17 -17 -18 -18 -17 -17 -17 -17 -17 -17 -17 -17 -17 -17 -17 -17 -17 -17 -17 -17 -17 -17 -16 -16 -16 -16 -16 -16 -16 -16 -16 -16 -16 -16 -16
-17 -17 -17 -17 -17 -17 -18 -18 -18 -18 -18 -18 -17 -17 -17 -17 -17 -17 -17 -17 -17 -17 -17 -17 -17 -17 -17 -17 -17 -17 -17 -17 -17 -17 -17 -17 -17 -17 -17 -16 -16 -16
-17 -17 -17 -17 -17 -18 -18 -18 -18 -18 -18 -18 -18 -18 -17 -17 -17 -17 -17 -17 -17 -17 -17 -17 -17 -17 -17 -17 -17 -17 -17 -17 -17 -17 -17 -17 -17 -17 -17 -17 -17 -17
-17 -17 -17 -17 -17 -18 -18 -18 -18 -18 -17 -18 -18 -18 -18 -17 -17 -17 -17 -17 -18 -18 -18 -17 -17 -17 -17 -18 -18 -18 -17 -17 -17 -17 -17 -17 -17 -17 -17 -17 -17 -17
-17 -17 -17 -17 -17 -18 -18 -18 -18 -18 -17 -18 -18 -18 -18 -18 -18 -18 -18 -18 -18 -18 -18 -18 -18 -18 -18 -18 -18 -18 -18 -18 -18 -18 -18 -18 -18 -18 -18 -18 -17 -17
-17 -18 -17 -17 -17 -17 -18 -18 -18 -18 -18 -18 -18 -19 -19 -19 -19 -18 -18 -18 -18 -18 -18 -18 -18 -18 -18 -18 -18 -18 -18 -18 -18 -18 -18 -18 -18 -18 -18 -18 -18 -18
-17 -17 -18 -18 -18 -17 -17 -17 -18 -18 -18 -18 -18 -18 -18 -19 -19 -19 -19 -19 -18 -18 -18 -18 -18 -18 -18 -18 -18 -18 -19 -19 -19 -18 -18 -18 -18 -18 -18 -18 -18 -18
-17 -17 -18 -18 -18 -18 -18 -18 -18 -18 -18 -18 -18 -18 -18 -18 -18 -19 -19 -19 -19 -19 -19 -19 -19 -18 -18 -18 -18 -19 -19 -19 -19 -19 -19 -19 -19 -19 -18 -18 -18 -18
-17 -17 -17 -17 -18 -18 -18 -18 -18 -18 -18 -18 -18 -18 -18 -18 -18 -18 -19 -19 -19 -19 -19 -19 -19 -19 -19 -19 -19 -18 -19 -19 -19 -19 -19 -19 -19 -19 -19 -19 -19 -18
-17 -17 -17 -17 -17 -18 -18 -18 -18 -19 -18 -18 -18 -18 -18 -19 -19 -18 -18 -18 -18 -19 -19 -19 -19 -19 -19 -19 -19 -19 -19 -19 -19 -19 -19 -19 -19 -19 -19 -19 -19 -19
-17 -17 -17 -18 -18 -18 -18 -18 -18 -19 -19 -19 -18 -18 -18 -19 -18 -18 -18 -18 -18 -18 -18 -19 -19 -19 -19 -19 -19 -19 -19 -19 -19 -19 -19 -19 -19 -19 -19 -19 -19 -19
-18 -18 -18 -18 -18 -18 -18 -18 -18 -18 -19 -19 -19 -18 -19 -19 -18 -18 -18 -18 -18 -19 -18 -19 -19 -19 -19 -19 -19 -19 -19 -19 -19 -19 -19 -19 -19 -19 -19 -19 -19 -19
-18 -18 -18 -18 -18 -18 -18 -18 -18 -18 -19 -19 -19 -18 -19 -19 -19 -19 -19 -18 -18 -19 -19 -19 -19 -19 -19 -19 -19 -19 -19 -19 -19 -19 -20 -19 -19 -19 -19 -19 -19 -19
-19 -19 -19 -19 -19 -19 -19 -19 -19 -19 -19 -19 -19 -19 -19 -19 -19 -19 -19 -19 -19 -19 -19 -19 -19 -19 -19 -19 -19 -19 -19 -19 -19 -19 -20 -20 -19 -19 -19 -19 -19 -19
-20 -19 -19 -19 -19 -19 -19 -19 -19 -19 -19 -19 -19 -19 -19 -19 -19 -19 -19 -19 -19 -19 -19 -19 -19 -19 -19 -19 -19 -19 -19 -19 -19 -19 -19 -19 -19 -19 -19 -19 -19 -19
-19 -19 -20 -20 -20 -20 -19 -19 -19 -19 -19 -19 -19 -19 -19 -19 -19 -19 -19 -19 -19 -19 -19 -19 -20 -20 -20 -20 -20 -19 -19 -19 -19 -19 -19 -19 -19 -19 -20 -19 -19 -19
-19 -19 -19 -20 -20 -20 -20 -20 -19 -19 -19 -19 -19 -19 -19 -20 -20 -20 -20 -20 -19 -19 -19 -19 -20 -20 -20 -20 -20 -20 -20 -20 -20 -20 -19 -19 -19 -20 -20 -20 -19 -19
-19 -19 -20 -20 -20 -20 -20 -20 -20 -20 -20 -20 -20 -20 -20 -20 -20 -20 -20 -20 -20 -19 -20 -20 -20 -20 -20 -20 -20 -20 -20 -20 -20 -20 -20 -20 -20 -20 -20 -20 -20 -19
-20 -20 -20 -20 -20 -20 -20 -20 -20 -20 -20 -20 -20 -20 -20 -20 -20 -21 -21 -20 -20 -20 -20 -20 -20 -20 -20 -20 -20 -20 -20 -20 -20 -20 -20 -20 -20 -20 -20 -20 -20 -20
-20 -20 -20 -21 -21 -21 -21 -21 -21 -21 -21 -21 -21 -20 -21 -21 -21 -21 -20 -20 -20 -20 -21 -21 -21 -21 -21 -20 -20 -20 -20 -20 -20 -20 -20 -20 -20 -20 -20 -20 -20 -20
-21 -21 -21 -21 -21 -21 -21 -21 -21 -21 -21 -21 -21 -21 -21 -21 -21 -21 -20 -20 -20 -21 -21 -21 -21 -21 -21 -21 -21 -20 -20 -20 -20 -20 -20 -20 -20 -20 -20 -20 -20 -20
-21 -21 -21 -21 -21 -21 -21 -21 -21 -21 -21 -21 -21 -21 -21 -21 -21 -21 -21 -21 -21 -21 -21 -21 -21 -21 -21 -21 -21 -21 -21 -21 -21 -21 -20 -20 -20 -20 -20 -20 -20 -20
-21 -21 -21 -21 -21 -21 -21 -21 -21 -22 -22 -22 -21 -21 -21 -21 -21 -21 -21 -21 -21 -21 -21 -21 -21 -21 -21 -21 -21 -21 -21 -21 -21 -21 -21 -21 -21 -21 -21 -21 -21 -21
Height
5747 5748 5748 5747 5747 5747 5747 5746 5745 5746 5746 5746 5746 5746 5746 5747 5747 5747 5748 5748 5748 5749 5749 5749 5749 5750 5750 5750 5751 5751 5752 5752 5752 5753 5753 5753 5753 5753 5753 5753 5753 5753
5744 5746 5747 5746 5746 5746 5745 5745 5744 5744 5744 5745 5745 5745 5745 5745 5745 5746 5746 5746 5747 5747 5747 5747 5748 5748 5748 5749 5749 5749 5750 5750 5751 5751 5751 5751 5751 5751 5751 5751 5751 5751
5741 5743 5744 5744 5745 5744 5744 5744 5743 5743 5743 5743 5743 5743 5743 5743 5743 5744 5744 5744 5745 5745 5745 5746 5746 5746 5747 5747 5747 5747 5748 5748 5749 5749 5749 5750 5750 5750 5750 5750 5749 5749
5738 5740 5741 5742 5743 5743 5742 5741 5741 5741 5741 5741 5741 5741 5741 5741 5741 5741 5742 5742 5743 5743 5743 5744 5744 5745 5745 5746 5746 5746 5746 5746 5747 5747 5748 5748 5748 5748 5748 5748 5748 5748
5735 5736 5738 5740 5741 5741 5740 5739 5738 5739 5739 5738 5738 5738 5739 5739 5739 5739 5740 5740 5740 5741 5741 5741 5742 5743 5743 5744 5744 5744 5745 5745 5745 5745 5746 5746 5746 5746 5746 5746 5746 5746
5732 5733 5735 5737 5738 5738 5737 5736 5735 5735 5736 5736 5736 5736 5736 5736 5737 5737 5737 5738 5738 5739 5739 5739 5740 5740 5741 5741 5742 5742 5743 5743 5743 5744 5744 5744 5744 5744 5744 5744 5744 5744
5730 5731 5732 5733 5734 5735 5734 5734 5733 5732 5733 5734 5734 5733 5733 5734 5734 5735 5735 5735 5736 5736 5737 5737 5738 5738 5739 5739 5740 5740 5740 5741 5741 5741 5742 5742 5742 5742 5742 5742 5742 5742
5727 5728 5729 5730 5730 5731 5731 5731 5731 5731 5732 5733 5733 5732 5732 5732 5732 5732 5732 5732 5733 5733 5734 5735 5735 5736 5737 5737 5737 5738 5738 5738 5739 5739 5739 5739 5740 5740 5740 5739 5739 5739
5723 5724 5725 5726 5726 5726 5727 5728 5729 5729 5729 5730 5731 5731 5730 5730 5730 5730 5730 5730 5730 5730 5731 5732 5732 5733 5734 5734 5735 5735 5735 5735 5736 5736 5737 5737 5737 5737 5737 5737 5737 5736
5719 5720 5721 5722 5722 5723 5723 5724 5725 5725 5726 5727 5727 5727 5728 5728 5728 5728 5728 5728 5728 5728 5729 5729 5729 5729 5730 5731 5731 5731 5732 5732 5733 5733 5734 5734 5735 5735 5735 5735 5735 5735
5714 5716 5717 5718 5719 5719 5720 5720 5721 5721 5722 5723 5724 5724 5725 5725 5725 5725 5725 5725 5726 5726 5727 5727 5726 5726 5726 5727 5727 5728 5728 5728 5729 5730 5731 5731 5732 5732 5732 5732 5732 5732
5711 5712 5713 5713 5714 5715 5716 5716 5717 5717 5718 5719 5720 5721 5721 5722 5722 5722 5722 5722 5723 5723 5724 5724 5724 5724 5724 5723 5723 5724 5725 5725 5726 5726 5727 5727 5728 5728 5729 5729 5729 5729
5709 5709 5709 5709 5710 5711 5712 5713 5713 5713 5714 5715 5716 5717 5718 5718 5718 5718 5718 5719 5719 5720 5720 5720 5720 5721 5721 5721 5720 5720 5721 5722 5723 5723 5723 5723 5724 5724 5725 5725 5725 5726
5705 5705 5704 5704 5705 5706 5707 5708 5709 5709 5709 5710 5711 5712 5713 5713 5713 5713 5713 5714 5715 5715 5715 5716 5717 5717 5717 5717 5717 5717 5717 5718 5719 5719 5720 5719 5720 5720 5720 5721 5721 5721
5699 5698 5698 5699 5701 5702 5703 5703 5704 5704 5705 5705 5706 5707 5708 5708 5708 5708 5709 5710 5711 5711 5712 5712 5713 5713 5713 5713 5713 5713 5713 5713 5714 5714 5715 5715 5716 5716 5716 5716 5716 5716
5694 5694 5694 5695 5696 5697 5698 5699 5699 5699 5700 5700 5701 5702 5703 5703 5703 5703 5704 5705 5706 5707 5708 5709 5709 5709 5709 5709 5709 5709 5710 5710 5710 5710 5710 5710 5711 5711 5711 5711 5712 5712
5689 5689 5690 5690 5691 5692 5693 5693 5694 5694 5694 5695 5696 5696 5697 5697 5698 5698 5699 5700 5701 5702 5703 5704 5704 5704 5704 5703 5703 5704 5705 5705 5706 5706 5706 5706 5707 5707 5707 5707 5707 5707
5684 5684 5685 5685 5686 5686 5687 5688 5688 5689 5689 5689 5690 5691 5691 5692 5693 5693 5694 5694 5695 5696 5697 5697 5697 5697 5697 5697 5698 5698 5699 5700 5701 5701 5701 5701 5701 5701 5701 5701 5701 5701
5679 5679 5680 5680 5681 5681 5681 5681 5682 5682 5683 5683 5683 5684 5685 5686 5686 5687 5688 5689 5690 5692 5692 5691 5691 5691 5691 5691 5691 5692 5693 5693 5694 5694 5695 5696 5695 5695 5695 5695 5695 5696
5673 5673 5674 5674 5674 5674 5674 5675 5675 5674 5675 5675 5676 5676 5677 5678 5679 5680 5681 5682 5684 5686 5686 5686 5686 5686 5686 5685 5685 5685 5686 5686 5687 5687 5688 5689 5689 5689 5689 5689 5689 5689
5667 5668 5668 5668 5668 5668 5668 5667 5668 5667 5667 5668 5668 5668 5669 5670 5671 5673 5673 5674 5676 5678 5678 5678 5678 5679 5679 5679 5679 5679 5679 5679 5680 5680 5681 5682 5682 5682 5681 5681 5682 5682
5662 5662 5662 5662 5662 5662 5661 5661 5661 5661 5661 5662 5662 5662 5663 5663 5664 5665 5667 5668 5670 5670 5670 5670 5671 5672 5672 5672 5672 5673 5672 5672 5673 5673 5673 5674 5675 5674 5673 5674 5674 5674
5657 5656 5656 5656 5656 5656 5656 5655 5655 5655 5655 5656 5656 5656 5657 5657 5658 5659 5661 5663 5664 5663 5662 5662 5663 5664 5665 5665 5666 5666 5666 5666 5667 5666 5666 5667 5667 5666 5666 5665 5665 5665
5650 5650 5650 5650 5649 5649 5650 5649 5649 5649 5649 5649 5650 5650 5650 5651 5652 5654 5656 5657 5657 5657 5656 5656 5656 5656 5657 5658 5659 5659 5659 5659 5660 5659 5659 5659 5659 5658 5658 5657 5657 5658
5642 5642 5642 5642 5642 5642 5643 5643 5643 5642 5642 5643 5643 5644 5644 5645 5646 5648 5650 5651 5650 5650 5649 5649 5648 5648 5649 5650 5650 5651 5652 5652 5652 5652 5651 5650 5650 5650 5649 5649 5650 5651
5634 5634 5635 5634 5634 5635 5636 5636 5636 5635 5635 5636 5636 5636 5637 5638 5640 5642 5643 5644 5644 5644 5643 5641 5641 5641 5641 5642 5643 5643 5644 5644 5644 5644 5643 5642 5642 5641 5641 5641 5642 5642
Wind_Speed
20 18 16 16 15 13 11 10 9 10 11 12 13 13 13 14 14 15 15 15 15 14 14 13 13 12 12 11 10 9 8 8 8 9 9 9 10 11 12 12 12 12
18 17 15 15 15 12 10 8 7 9 10 11 12 12 13 13 14 14 15 15 15 15 14 14 13 13 12 12 11 10 9 9 8 8 9 9 9 9 10 11 11 11
17 17 15 14 14 12 10 8 7 9 11 12 12 12 12 12 12 12 12 13 13 14 14 14 14 14 13 13 13 12 11 11 10 9 9 9 9 9 10 10 11 11
17 17 17 15 12 11 11 10 9 10 12 13 13 12 11 10 10 11 11 11 12 12 13 13 14 14 14 14 14 14 13 12 12 11 10 10 10 10 10 10 11 11
19 18 19 16 13 11 11 12 13 12 13 14 14 14 13 12 12 11 11 11 12 12 12 12 13 13 13 14 14 14 14 14 14 13 12 12 11 11 11 11 11 12
22 21 21 19 16 13 13 14 16 16 16 17 17 17 16 16 15 14 13 13 12 12 12 12 12 12 12 13 14 14 15 15 15 15 14 14 14 14 13 14 13 13
25 24 23 21 19 18 17 17 19 19 18 18 19 20 20 19 17 16 16 15 15 14 14 14 14 14 13 14 14 15 16 17 17 16 16 15 14 14 14 14 14 14
27 26 24 23 23 23 22 20 20 21 20 19 20 22 23 22 20 19 18 17 17 18 17 17 16 16 16 16 16 17 18 18 18 18 18 17 16 15 15 14 14 14
27 26 26 26 26 26 24 23 23 23 22 21 22 23 24 23 22 21 21 20 20 20 19 19 19 18 17 18 19 19 19 19 19 19 20 20 20 18 18 16 15 15
30 29 28 29 29 28 27 25 25 26 26 25 25 24 24 24 23 23 23 23 23 23 22 22 22 20 20 20 20 20 21 21 20 19 19 20 21 21 20 19 18 17
29 30 30 30 31 31 29 28 28 28 29 29 28 26 25 26 25 24 25 26 25 26 26 26 26 25 23 22 21 21 22 23 22 21 20 20 21 21 21 21 21 20
32 33 33 33 33 33 32 32 32 32 32 33 31 28 26 26 26 26 28 29 28 28 29 29 28 27 26 25 25 23 23 23 24 24 24 23 23 23 23 23 24 24
35 35 34 32 32 33 34 35 36 37 37 37 36 33 30 29 29 29 31 32 31 31 33 33 31 30 29 28 27 26 26 26 25 24 25 26 27 27 26 26 27 27
38 37 35 34 33 34 35 36 38 39 38 37 37 36 36 35 34 33 33 33 32 31 31 32 32 31 31 30 29 28 29 29 29 28 27 28 29 30 30 30 30 30
43 43 43 41 40 39 39 39 39 39 38 37 37 36 37 38 38 37 36 35 34 31 29 30 31 31 32 32 31 31 31 31 33 34 33 31 30 30 31 32 32 32
46 47 47 46 45 44 44 44 44 44 43 42 40 39 38 39 40 40 40 38 37 36 35 35 36 36 36 35 34 34 35 35 36 37 37 35 32 30 31 32 32 33
49 49 49 49 49 48 47 47 48 48 47 46 44 41 41 41 42 42 43 42 42 42 42 42 42 41 40 38 36 36 36 35 35 35 35 35 35 35 36 36 36 37
52 52 52 52 52 52 52 52 52 52 51 50 48 46 45 45 44 44 45 46 47 47 47 47 46 45 44 43 41 40 40 39 38 38 39 40 40 40 40 40 40 40
52 53 53 53 53 54 55 56 56 56 55 55 53 52 51 50 48 48 48 49 49 48 48 48 47 47 47 47 47 47 47 48 47 47 48 47 47 46 44 43 43 42
46 47 48 48 49 50 51 53 54 55 56 56 56 55 55 53 51 51 51 52 52 51 49 49 48 48 48 48 49 49 49 49 48 48 49 49 48 48 47 47 47 47
44 44 45 46 48 49 50 50 50 51 52 53 54 55 55 55 53 52 51 52 53 52 50 48 47 47 47 48 48 49 49 49 48 47 47 47 47 47 48 49 49 49
47 47 48 49 51 52 52 51 51 50 50 50 51 53 54 55 55 55 54 54 54 53 52 51 50 50 50 49 49 49 50 51 51 51 50 49 48 49 49 50 50 49
51 52 52 53 53 53 53 52 51 51 50 50 51 52 53 54 55 55 55 55 55 55 55 54 54 54 53 53 54 54 54 54 54 54 54 53 52 52 52 52 52 52
55 56 56 55 53 52 52 52 51 51 51 51 51 52 52 53 53 54 54 54 55 54 54 54 53 53 52 53 53 54 53 53 53 53 54 54 53 53 52 52 53 53
56 56 56 55 53 52 52 52 52 52 52 52 52 52 52 53 53 53 53 53 53 53 53 53 52 52 51 51 51 51 50 50 50 50 51 51 51 51 50 50 50 51
56 56 56 55 54 53 52 52 52 53 53 54 54 54 54 54 55 55 55 55 54 54 54 54 54 53 53 52 51 50 49 48 47 48 48 49 49 49 49 49 49 48
Wind_Direction
282 276 267 267 268 267 267 268 276 283 284 286 286 286 287 287 287 287 287 286 284 283 281 279 279 279 278 276 273 271 269 265 265 266 270 272 271 272 271 273 274 276
276 273 264 264 267 267 269 271 281 290 290 291 291 291 291 289 289 289 288 288 286 285 282 279 277 277 277 277 276 274 272 269 268 267 269 272 273 274 274 276 278 279
270 270 265 264 265 268 274 276 283 293 294 293 292 290 290 289 288 287 288 289 288 288 286 284 282 280 279 279 278 278 277 275 273 270 269 270 272 273 274 275 277 280
267 265 263 263 265 271 277 278 279 287 291 292 289 284 280 280 282 283 284 285 286 286 286 286 285 285 285 283 281 279 277 275 274 271 269 268 268 270 271 272 274 279
265 261 260 261 265 267 270 275 277 280 283 283 282 277 269 268 271 273 277 281 282 282 283 284 284 286 288 288 286 282 280 277 274 272 269 265 263 262 261 262 263 266
259 261 263 261 261 258 258 266 269 270 271 272 273 270 267 268 269 268 269 272 272 271 274 278 280 283 287 290 291 290 288 286 282 278 274 270 266 262 260 258 258 259
258 263 264 261 260 256 255 260 264 266 267 269 271 270 269 271 269 267 268 267 263 262 266 271 273 273 276 280 282 286 288 289 288 284 279 273 268 265 264 262 261 262
263 264 261 259 258 257 259 262 267 272 272 272 273 273 273 274 270 267 267 266 264 265 270 275 275 273 275 276 275 275 276 278 280 281 280 275 271 267 265 264 265 265
264 263 261 259 257 257 260 264 269 272 271 268 266 266 269 272 272 272 272 270 268 267 269 274 273 272 274 278 278 275 272 271 271 273 277 278 277 275 271 267 266 266
261 264 264 262 259 259 262 266 270 271 269 266 263 261 263 264 265 267 270 273 272 271 271 272 270 269 270 273 274 275 273 271 269 268 271 276 278 279 278 276 272 269
265 266 265 262 261 261 264 269 272 273 272 269 266 264 265 263 260 259 263 267 267 267 269 270 268 268 271 273 273 273 271 269 269 268 268 269 271 273 275 276 276 275
269 268 266 263 260 259 261 266 269 271 272 271 268 267 267 267 264 261 262 263 263 262 262 262 263 265 269 273 274 273 272 270 270 270 269 267 265 265 266 268 272 275
269 268 267 264 261 260 262 266 268 268 269 270 268 264 264 267 268 266 268 267 267 266 261 256 257 260 264 267 269 272 273 272 271 271 271 269 266 265 264 265 267 270
268 267 267 267 266 265 267 270 269 268 271 273 271 264 261 265 268 269 271 271 270 270 265 257 255 260 262 261 262 266 268 269 269 269 269 269 268 266 265 266 268 270
268 269 270 271 270 269 268 269 269 270 272 275 275 269 264 266 270 270 270 271 271 272 271 265 262 264 265 261 259 261 263 264 267 267 267 266 265 265 265 265 267 270
270 271 272 273 272 271 270 270 270 271 273 274 275 274 270 270 272 271 269 269 271 273 274 272 269 268 267 265 266 268 269 268 267 265 264 263 262 263 265 266 268 270
269 270 271 272 273 273 273 272 272 272 273 273 273 271 270 269 269 270 270 270 271 272 273 273 271 270 268 267 267 269 269 268 265 262 262 264 264 266 268 270 271 272
264 265 267 269 271 272 272 272 273 272 272 272 271 270 269 268 268 269 270 270 271 272 273 274 274 273 272 271 269 267 266 267 266 265 268 270 272 273 274 273 273 274
262 264 266 267 269 269 270 270 270 271 271 270 270 269 269 268 267 267 268 268 268 269 271 272 273 274 275 276 275 273 272 272 271 271 273 274 275 275 274 273 273 274
265 266 268 270 271 271 271 270 270 270 270 270 269 269 268 267 266 266 267 268 268 268 269 270 272 273 274 275 277 277 277 276 275 274 275 275 275 274 272 272 272 272
267 267 270 272 274 274 274 273 271 270 270 270 270 269 269 269 268 267 268 269 271 271 272 273 274 275 275 275 275 276 276 276 276 275 275 274 274 273 272 272 273 274
267 268 271 273 275 275 274 273 272 271 270 269 269 268 268 268 268 268 268 270 271 272 272 273 274 275 275 276 276 276 276 277 277 278 277 277 277 276 276 277 278 278
265 266 268 271 272 272 271 271 270 270 269 269 268 268 268 269 269 268 269 270 271 272 274 275 275 275 275 275 275 275 276 277 277 278 278 278 278 279 280 281 281 282
265 266 268 269 269 267 266 267 267 267 268 268 267 268 268 269 269 269 270 270 271 273 274 275 275 275 275 275 274 275 275 275 276 276 277 277 277 278 278 278 280 281
266 267 268 268 267 265 263 263 263 264 265 265 265 266 266 267 268 268 269 270 270 272 273 273 274 275 275 275 275 275 275 275 275 276 276 276 276 276 276 276 278 279
268 267 267 266 265 264 263 262 263 263 263 264 264 264 265 266 266 267 268 268 269 270 272 273 274 275 276 276 276 277 277 277 276 276 275 275 275 276 276 276 277 277